owner,sensor,date,latitude,longitude,vertical_datum,mass_concentration_of_oxygen_in_sea_water,qcFlag 
SCCF RECON,ioos:station:SCCF:51:1,2009-02-01T00:00:00Z,26.5545,-82.1715,1.589,7.57,1111122 
SCCF RECON,ioos:station:SCCF:51:1,2009-02-01T01:00:00Z,26.5545,-82.1715,1.501,7.6,1111122 
SCCF RECON,ioos:station:SCCF:51:1,2009-02-01T02:00:00Z,26.5545,-82.1715,1.427,7.47,1111122 
SCCF RECON,ioos:station:SCCF:51:1,2009-02-01T03:00:00Z,26.5545,-82.1715,1.367,7.39,1111122 
SCCF RECON,ioos:station:SCCF:51:1,2009-02-01T04:00:00Z,26.5545,-82.1715,1.361,7.39,1111122 
SCCF RECON,ioos:station:SCCF:51:1,2009-02-01T05:00:00Z,26.5545,-82.1715,1.387,7.42,1111122 
SCCF RECON,ioos:station:SCCF:51:1,2009-02-01T06:00:00Z,26.5545,-82.1715,1.445,7.5,1111122 
SCCF RECON,ioos:station:SCCF:51:1,2009-02-01T07:00:00Z,26.5545,-82.1715,1.512,7.52,1111122 
SCCF RECON,ioos:station:SCCF:51:1,2009-02-01T08:00:00Z,26.5545,-82.1715,1.586,7.46,1111122 
SCCF RECON,ioos:station:SCCF:51:1,2009-02-01T09:00:00Z,26.5545,-82.1715,1.63,7.34,1111122 
SCCF RECON,ioos:station:SCCF:51:1,2009-02-01T10:00:00Z,26.5545,-82.1715,1.652,7.31,1111122 
SCCF RECON,ioos:station:SCCF:51:1,2009-02-01T11:00:00Z,26.5545,-82.1715,1.633,7.33,1111122 
SCCF RECON,ioos:station:SCCF:51:1,2009-02-01T12:00:00Z,26.5545,-82.1715,1.586,7.37,1111122 
SCCF RECON,ioos:station:SCCF:51:1,2009-02-01T13:00:00Z,26.5545,-82.1715,1.533,7.47,1111122 
SCCF RECON,ioos:station:SCCF:51:1,2009-02-01T14:00:00Z,26.5545,-82.1715,1.484,7.5,1111122 
SCCF RECON,ioos:station:SCCF:51:1,2009-02-01T15:00:00Z,26.5545,-82.1715,1.475,7.56,1111122 
SCCF RECON,ioos:station:SCCF:51:1,2009-02-01T16:00:00Z,26.5545,-82.1715,1.513,7.66,1111122 
SCCF RECON,ioos:station:SCCF:51:1,2009-02-01T17:00:00Z,26.5545,-82.1715,1.553,7.72,1111122 
SCCF RECON,ioos:station:SCCF:51:1,2009-02-01T18:00:00Z,26.5545,-82.1715,1.627,7.97,1111122 
SCCF RECON,ioos:station:SCCF:51:1,2009-02-01T19:00:00Z,26.5545,-82.1715,1.715,7.65,1111122 
SCCF RECON,ioos:station:SCCF:51:1,2009-02-01T20:00:00Z,26.5545,-82.1715,1.804,7.59,1111122 
SCCF RECON,ioos:station:SCCF:51:1,2009-02-01T21:00:00Z,26.5545,-82.1715,1.875,7.71,1111122 
SCCF RECON,ioos:station:SCCF:51:1,2009-02-01T22:00:00Z,26.5545,-82.1715,1.89,7.89,1111122 
SCCF RECON,ioos:station:SCCF:51:1,2009-02-01T23:00:00Z,26.5545,-82.1715,1.86,7.86,1111122 
SCCF RECON,ioos:station:SCCF:51:1,2009-02-02T00:00:00Z,26.5545,-82.1715,1.78,8.04,1111122 
SCCF RECON,ioos:station:SCCF:51:1,2009-02-02T01:00:00Z,26.5545,-82.1715,1.68,8.05,1111122 
SCCF RECON,ioos:station:SCCF:51:1,2009-02-02T02:00:00Z,26.5545,-82.1715,1.588,7.97,1111122 
SCCF RECON,ioos:station:SCCF:51:1,2009-02-02T03:00:00Z,26.5545,-82.1715,1.5,7.91,1111122 
SCCF RECON,ioos:station:SCCF:51:1,2009-02-02T04:00:00Z,26.5545,-82.1715,1.42,7.87,1111122 
SCCF RECON,ioos:station:SCCF:51:1,2009-02-02T05:00:00Z,26.5545,-82.1715,1.39,7.86,1111122 
SCCF RECON,ioos:station:SCCF:51:1,2009-02-02T06:00:00Z,26.5545,-82.1715,1.407,7.89,1111122 
SCCF RECON,ioos:station:SCCF:51:1,2009-02-02T07:00:00Z,26.5545,-82.1715,1.444,7.79,1111122 
SCCF RECON,ioos:station:SCCF:51:1,2009-02-02T08:00:00Z,26.5545,-82.1715,1.539,7.74,1111122 
SCCF RECON,ioos:station:SCCF:51:1,2009-02-02T09:00:00Z,26.5545,-82.1715,1.6,7.53,1111122 
SCCF RECON,ioos:station:SCCF:51:1,2009-02-02T10:00:00Z,26.5545,-82.1715,1.67,7.47,1111122 
SCCF RECON,ioos:station:SCCF:51:1,2009-02-02T11:00:00Z,26.5545,-82.1715,1.708,7.49,1111122 
SCCF RECON,ioos:station:SCCF:51:1,2009-02-02T12:00:00Z,26.5545,-82.1715,1.738,7.52,1111122 
SCCF RECON,ioos:station:SCCF:51:1,2009-02-02T13:00:00Z,26.5545,-82.1715,1.694,7.64,1111122 
SCCF RECON,ioos:station:SCCF:51:1,2009-02-02T14:00:00Z,26.5545,-82.1715,1.667,7.59,1111122 
SCCF RECON,ioos:station:SCCF:51:1,2009-02-02T15:00:00Z,26.5545,-82.1715,1.645,7.59,1111122 
SCCF RECON,ioos:station:SCCF:51:1,2009-02-02T16:00:00Z,26.5545,-82.1715,1.636,7.64,1111122 
SCCF RECON,ioos:station:SCCF:51:1,2009-02-02T17:00:00Z,26.5545,-82.1715,1.671,7.87,1111122 
SCCF RECON,ioos:station:SCCF:51:1,2009-02-02T18:00:00Z,26.5545,-82.1715,1.733,7.92,1111122 
SCCF RECON,ioos:station:SCCF:51:1,2009-02-02T19:00:00Z,26.5545,-82.1715,1.848,7.78,1111122 
SCCF RECON,ioos:station:SCCF:51:1,2009-02-02T20:00:00Z,26.5545,-82.1715,1.933,7.63,1111122 
SCCF RECON,ioos:station:SCCF:51:1,2009-02-02T21:00:00Z,26.5545,-82.1715,1.988,7.47,1111122 
SCCF RECON,ioos:station:SCCF:51:1,2009-02-02T22:00:00Z,26.5545,-82.1715,2.058,7.68,1111122 
SCCF RECON,ioos:station:SCCF:51:1,2009-02-02T23:00:00Z,26.5545,-82.1715,2.086,7.54,1111122 
SCCF RECON,ioos:station:SCCF:51:1,2009-02-03T00:00:00Z,26.5545,-82.1715,2.029,7.43,1111122 
SCCF RECON,ioos:station:SCCF:51:1,2009-02-03T01:00:00Z,26.5545,-82.1715,1.941,7.64,1111122 
SCCF RECON,ioos:station:SCCF:51:1,2009-02-03T02:00:00Z,26.5545,-82.1715,1.827,7.61,1111122 
SCCF RECON,ioos:station:SCCF:51:1,2009-02-03T03:00:00Z,26.5545,-82.1715,1.725,7.48,1111122 
SCCF RECON,ioos:station:SCCF:51:1,2009-02-03T04:00:00Z,26.5545,-82.1715,1.631,7.57,1111122 
SCCF RECON,ioos:station:SCCF:51:1,2009-02-03T05:00:00Z,26.5545,-82.1715,1.536,7.6,1111122 
SCCF RECON,ioos:station:SCCF:51:1,2009-02-03T06:00:00Z,26.5545,-82.1715,1.461,7.11,1111122 
SCCF RECON,ioos:station:SCCF:51:1,2009-02-03T07:00:00Z,26.5545,-82.1715,1.405,6.94,1111122 
SCCF RECON,ioos:station:SCCF:51:1,2009-02-03T08:00:00Z,26.5545,-82.1715,1.399,7.19,1111122 
SCCF RECON,ioos:station:SCCF:51:1,2009-02-03T09:00:00Z,26.5545,-82.1715,1.454,7.45,1111122 
SCCF RECON,ioos:station:SCCF:51:1,2009-02-03T10:00:00Z,26.5545,-82.1715,1.536,7.44,1111122 
SCCF RECON,ioos:station:SCCF:51:1,2009-02-03T11:00:00Z,26.5545,-82.1715,1.628,7.15,1111122 
SCCF RECON,ioos:station:SCCF:51:1,2009-02-03T12:00:00Z,26.5545,-82.1715,1.695,7.16,1111122 
SCCF RECON,ioos:station:SCCF:51:1,2009-02-03T13:00:00Z,26.5545,-82.1715,1.669,7.19,1111122 
SCCF RECON,ioos:station:SCCF:51:1,2009-02-03T14:00:00Z,26.5545,-82.1715,1.641,7.29,1111122 
SCCF RECON,ioos:station:SCCF:51:1,2009-02-03T15:00:00Z,26.5545,-82.1715,1.622,7.43,1111122 
SCCF RECON,ioos:station:SCCF:51:1,2009-02-03T16:00:00Z,26.5545,-82.1715,1.609,7.51,1111122 
SCCF RECON,ioos:station:SCCF:51:1,2009-02-03T17:00:00Z,26.5545,-82.1715,1.621,7.58,1111122 
SCCF RECON,ioos:station:SCCF:51:1,2009-02-03T18:00:00Z,26.5545,-82.1715,1.646,7.58,1111122 
SCCF RECON,ioos:station:SCCF:51:1,2009-02-03T19:00:00Z,26.5545,-82.1715,1.684,7.51,1111122 
SCCF RECON,ioos:station:SCCF:51:1,2009-02-03T20:00:00Z,26.5545,-82.1715,1.715,7.62,1111122 
SCCF RECON,ioos:station:SCCF:51:1,2009-02-03T21:00:00Z,26.5545,-82.1715,1.758,7.86,1111122 
SCCF RECON,ioos:station:SCCF:51:1,2009-02-03T22:00:00Z,26.5545,-82.1715,1.791,7.74,1111122 
SCCF RECON,ioos:station:SCCF:51:1,2009-02-03T23:00:00Z,26.5545,-82.1715,1.812,7.66,1111122 
SCCF RECON,ioos:station:SCCF:51:1,2009-02-04T00:00:00Z,26.5545,-82.1715,1.81,7.55,1111122 
SCCF RECON,ioos:station:SCCF:51:1,2009-02-04T01:00:00Z,26.5545,-82.1715,1.779,7.48,1111122 
SCCF RECON,ioos:station:SCCF:51:1,2009-02-04T02:00:00Z,26.5545,-82.1715,1.718,7.5,1111122 
SCCF RECON,ioos:station:SCCF:51:1,2009-02-04T03:00:00Z,26.5545,-82.1715,1.644,7.5,1111122 
SCCF RECON,ioos:station:SCCF:51:1,2009-02-04T04:00:00Z,26.5545,-82.1715,1.558,7.54,1111122 
SCCF RECON,ioos:station:SCCF:51:1,2009-02-04T05:00:00Z,26.5545,-82.1715,1.473,7.49,1111122 
SCCF RECON,ioos:station:SCCF:51:1,2009-02-04T06:00:00Z,26.5545,-82.1715,1.392,7.35,1111122 
SCCF RECON,ioos:station:SCCF:51:1,2009-02-04T07:00:00Z,26.5545,-82.1715,1.33,7.47,1111122 
SCCF RECON,ioos:station:SCCF:51:1,2009-02-04T08:00:00Z,26.5545,-82.1715,1.295,7.42,1111122 
SCCF RECON,ioos:station:SCCF:51:1,2009-02-04T09:00:00Z,26.5545,-82.1715,1.303,7.37,1111122 
SCCF RECON,ioos:station:SCCF:51:1,2009-02-04T10:00:00Z,26.5545,-82.1715,1.36,7.33,1111122 
SCCF RECON,ioos:station:SCCF:51:1,2009-02-04T11:00:00Z,26.5545,-82.1715,1.443,7.37,1111122 
SCCF RECON,ioos:station:SCCF:51:1,2009-02-04T12:00:00Z,26.5545,-82.1715,1.539,7.41,1111122 
SCCF RECON,ioos:station:SCCF:51:1,2009-02-04T13:00:00Z,26.5545,-82.1715,1.662,7.4,1111122 
SCCF RECON,ioos:station:SCCF:51:1,2009-02-04T14:00:00Z,26.5545,-82.1715,1.704,7.42,1111122 
SCCF RECON,ioos:station:SCCF:51:1,2009-02-04T15:00:00Z,26.5545,-82.1715,1.716,7.48,1111122 
SCCF RECON,ioos:station:SCCF:51:1,2009-02-04T16:00:00Z,26.5545,-82.1715,1.709,7.54,1111122 
SCCF RECON,ioos:station:SCCF:51:1,2009-02-04T17:00:00Z,26.5545,-82.1715,1.707,7.62,1111122 
SCCF RECON,ioos:station:SCCF:51:1,2009-02-04T18:00:00Z,26.5545,-82.1715,1.709,7.7,1111122 
SCCF RECON,ioos:station:SCCF:51:1,2009-02-04T19:00:00Z,26.5545,-82.1715,1.728,7.58,1111122 
SCCF RECON,ioos:station:SCCF:51:1,2009-02-04T20:00:00Z,26.5545,-82.1715,1.765,7.72,1111122 
SCCF RECON,ioos:station:SCCF:51:1,2009-02-04T21:00:00Z,26.5545,-82.1715,1.8,7.88,1111122 
SCCF RECON,ioos:station:SCCF:51:1,2009-02-04T22:00:00Z,26.5545,-82.1715,1.84,8.13,1111122 
SCCF RECON,ioos:station:SCCF:51:1,2009-02-04T23:00:00Z,26.5545,-82.1715,1.881,8.17,1111122 
SCCF RECON,ioos:station:SCCF:51:1,2009-02-05T00:00:00Z,26.5545,-82.1715,1.893,7.7,1111122 
SCCF RECON,ioos:station:SCCF:51:1,2009-02-05T01:00:00Z,26.5545,-82.1715,1.885,7.6,1111122 
SCCF RECON,ioos:station:SCCF:51:1,2009-02-05T02:00:00Z,26.5545,-82.1715,1.855,7.61,1111122 
SCCF RECON,ioos:station:SCCF:51:1,2009-02-05T03:00:00Z,26.5545,-82.1715,1.794,7.61,1111122 
SCCF RECON,ioos:station:SCCF:51:1,2009-02-05T04:00:00Z,26.5545,-82.1715,1.699,7.63,1111122 
SCCF RECON,ioos:station:SCCF:51:1,2009-02-05T05:00:00Z,26.5545,-82.1715,1.596,7.66,1111122 
SCCF RECON,ioos:station:SCCF:51:1,2009-02-05T06:00:00Z,26.5545,-82.1715,1.483,7.68,1111122 
SCCF RECON,ioos:station:SCCF:51:1,2009-02-05T07:00:00Z,26.5545,-82.1715,1.361,7.71,1111122 
SCCF RECON,ioos:station:SCCF:51:1,2009-02-05T08:00:00Z,26.5545,-82.1715,1.273,7.75,1111122 
SCCF RECON,ioos:station:SCCF:51:1,2009-02-05T09:00:00Z,26.5545,-82.1715,1.189,7.76,1111122 
SCCF RECON,ioos:station:SCCF:51:1,2009-02-05T10:00:00Z,26.5545,-82.1715,1.135,7.79,1111122 
SCCF RECON,ioos:station:SCCF:51:1,2009-02-05T11:00:00Z,26.5545,-82.1715,1.141,7.91,1111122 
SCCF RECON,ioos:station:SCCF:51:1,2009-02-05T12:00:00Z,26.5545,-82.1715,1.196,7.93,1111122 
SCCF RECON,ioos:station:SCCF:51:1,2009-02-05T13:00:00Z,26.5545,-82.1715,1.275,7.82,1111122 
SCCF RECON,ioos:station:SCCF:51:1,2009-02-05T14:00:00Z,26.5545,-82.1715,1.364,7.88,1111122 
SCCF RECON,ioos:station:SCCF:51:1,2009-02-05T15:00:00Z,26.5545,-82.1715,1.449,8.01,1111122 
SCCF RECON,ioos:station:SCCF:51:1,2009-02-05T16:00:00Z,26.5545,-82.1715,1.508,8.07,1111122 
SCCF RECON,ioos:station:SCCF:51:1,2009-02-05T17:00:00Z,26.5545,-82.1715,1.547,8.15,1111122 
SCCF RECON,ioos:station:SCCF:51:1,2009-02-05T18:00:00Z,26.5545,-82.1715,1.568,8.26,1111122 
SCCF RECON,ioos:station:SCCF:51:1,2009-02-05T19:00:00Z,26.5545,-82.1715,1.569,8.32,1111122 
SCCF RECON,ioos:station:SCCF:51:1,2009-02-05T20:00:00Z,26.5545,-82.1715,1.597,8.4,1111122 
SCCF RECON,ioos:station:SCCF:51:1,2009-02-05T21:00:00Z,26.5545,-82.1715,1.651,8.29,1111122 
SCCF RECON,ioos:station:SCCF:51:1,2009-02-05T22:00:00Z,26.5545,-82.1715,1.729,8.54,1111122 
SCCF RECON,ioos:station:SCCF:51:1,2009-02-05T23:00:00Z,26.5545,-82.1715,1.824,8.04,1111122 
SCCF RECON,ioos:station:SCCF:51:1,2009-02-06T00:00:00Z,26.5545,-82.1715,1.907,7.83,1111122 
SCCF RECON,ioos:station:SCCF:51:1,2009-02-06T01:00:00Z,26.5545,-82.1715,1.963,7.73,1111122 
SCCF RECON,ioos:station:SCCF:51:1,2009-02-06T02:00:00Z,26.5545,-82.1715,1.98,7.67,1111122 
SCCF RECON,ioos:station:SCCF:51:1,2009-02-06T03:00:00Z,26.5545,-82.1715,1.937,7.77,1111122 
SCCF RECON,ioos:station:SCCF:51:1,2009-02-06T04:00:00Z,26.5545,-82.1715,1.857,7.96,1111122 
SCCF RECON,ioos:station:SCCF:51:1,2009-02-06T05:00:00Z,26.5545,-82.1715,1.75,8.12,1111122 
SCCF RECON,ioos:station:SCCF:51:1,2009-02-06T06:00:00Z,26.5545,-82.1715,1.625,8.23,1111122 
SCCF RECON,ioos:station:SCCF:51:1,2009-02-06T07:00:00Z,26.5545,-82.1715,1.506,8.18,1111122 
SCCF RECON,ioos:station:SCCF:51:1,2009-02-06T08:00:00Z,26.5545,-82.1715,1.387,8.15,1111122 
SCCF RECON,ioos:station:SCCF:51:1,2009-02-06T09:00:00Z,26.5545,-82.1715,1.283,8.1,1111122 
SCCF RECON,ioos:station:SCCF:51:1,2009-02-06T10:00:00Z,26.5545,-82.1715,1.202,8.06,1111122 
SCCF RECON,ioos:station:SCCF:51:1,2009-02-06T11:00:00Z,26.5545,-82.1715,1.181,8.08,1111122 
SCCF RECON,ioos:station:SCCF:51:1,2009-02-06T12:00:00Z,26.5545,-82.1715,1.24,8.11,1111122 
SCCF RECON,ioos:station:SCCF:51:1,2009-02-06T13:00:00Z,26.5545,-82.1715,1.339,8.22,1111122 
SCCF RECON,ioos:station:SCCF:51:1,2009-02-06T14:00:00Z,26.5545,-82.1715,1.461,8.28,1111122 
SCCF RECON,ioos:station:SCCF:51:1,2009-02-06T15:00:00Z,26.5545,-82.1715,1.582,8.2,1111122 
SCCF RECON,ioos:station:SCCF:51:1,2009-02-06T16:00:00Z,26.5545,-82.1715,1.673,7.97,1111122 
SCCF RECON,ioos:station:SCCF:51:1,2009-02-06T17:00:00Z,26.5545,-82.1715,1.728,7.85,1111122 
SCCF RECON,ioos:station:SCCF:51:1,2009-02-06T18:00:00Z,26.5545,-82.1715,1.73,7.97,1111122 
SCCF RECON,ioos:station:SCCF:51:1,2009-02-06T19:00:00Z,26.5545,-82.1715,1.7,8.22,1111122 
SCCF RECON,ioos:station:SCCF:51:1,2009-02-06T20:00:00Z,26.5545,-82.1715,1.682,8.38,1111122 
SCCF RECON,ioos:station:SCCF:51:1,2009-02-06T21:00:00Z,26.5545,-82.1715,1.716,8.28,1111122 
SCCF RECON,ioos:station:SCCF:51:1,2009-02-06T22:00:00Z,26.5545,-82.1715,1.79,8.07,1111122 
SCCF RECON,ioos:station:SCCF:51:1,2009-02-06T23:00:00Z,26.5545,-82.1715,1.884,8.51,1111122 
SCCF RECON,ioos:station:SCCF:51:1,2009-02-07T00:00:00Z,26.5545,-82.1715,1.97,7.98,1111122 
SCCF RECON,ioos:station:SCCF:51:1,2009-02-07T01:00:00Z,26.5545,-82.1715,2.04,7.91,1111122 
SCCF RECON,ioos:station:SCCF:51:1,2009-02-07T02:00:00Z,26.5545,-82.1715,2.08,7.91,1111122 
SCCF RECON,ioos:station:SCCF:51:1,2009-02-07T03:00:00Z,26.5545,-82.1715,2.081,7.83,1111122 
SCCF RECON,ioos:station:SCCF:51:1,2009-02-07T04:00:00Z,26.5545,-82.1715,2.047,7.85,1111122 
SCCF RECON,ioos:station:SCCF:51:1,2009-02-07T05:00:00Z,26.5545,-82.1715,1.97,8.07,1111122 
SCCF RECON,ioos:station:SCCF:51:1,2009-02-07T06:00:00Z,26.5545,-82.1715,1.85,8.3,1111122 
SCCF RECON,ioos:station:SCCF:51:1,2009-02-07T07:00:00Z,26.5545,-82.1715,1.708,8.23,1111122 
SCCF RECON,ioos:station:SCCF:51:1,2009-02-07T08:00:00Z,26.5545,-82.1715,1.561,8.24,1111122 
SCCF RECON,ioos:station:SCCF:51:1,2009-02-07T09:00:00Z,26.5545,-82.1715,1.425,8.25,1111122 
SCCF RECON,ioos:station:SCCF:51:1,2009-02-07T10:00:00Z,26.5545,-82.1715,1.305,8.21,1111122 
SCCF RECON,ioos:station:SCCF:51:1,2009-02-07T11:00:00Z,26.5545,-82.1715,1.22,8.17,1111122 
SCCF RECON,ioos:station:SCCF:51:1,2009-02-07T12:00:00Z,26.5545,-82.1715,1.212,8.09,1111122 
SCCF RECON,ioos:station:SCCF:51:1,2009-02-07T13:00:00Z,26.5545,-82.1715,1.306,8.15,1111122 
SCCF RECON,ioos:station:SCCF:51:1,2009-02-07T14:00:00Z,26.5545,-82.1715,1.446,8.18,1111122 
SCCF RECON,ioos:station:SCCF:51:1,2009-02-07T15:00:00Z,26.5545,-82.1715,1.591,8.08,1111122 
SCCF RECON,ioos:station:SCCF:51:1,2009-02-07T16:00:00Z,26.5545,-82.1715,1.708,8.08,1111122 
SCCF RECON,ioos:station:SCCF:51:1,2009-02-07T17:00:00Z,26.5545,-82.1715,1.79,8.17,1111122 
SCCF RECON,ioos:station:SCCF:51:1,2009-02-07T18:00:00Z,26.5545,-82.1715,1.823,8.33,1111122 
SCCF RECON,ioos:station:SCCF:51:1,2009-02-07T19:00:00Z,26.5545,-82.1715,1.784,8.35,1111122 
SCCF RECON,ioos:station:SCCF:51:1,2009-02-07T20:00:00Z,26.5545,-82.1715,1.725,8.45,1111122 
SCCF RECON,ioos:station:SCCF:51:1,2009-02-07T21:00:00Z,26.5545,-82.1715,1.686,8.56,1111122 
SCCF RECON,ioos:station:SCCF:51:1,2009-02-07T22:00:00Z,26.5545,-82.1715,1.711,8.58,1111122 
SCCF RECON,ioos:station:SCCF:51:1,2009-02-07T23:00:00Z,26.5545,-82.1715,1.772,8.5,1111122 
SCCF RECON,ioos:station:SCCF:51:1,2009-02-08T00:00:00Z,26.5545,-82.1715,1.85,8.52,1111122 
SCCF RECON,ioos:station:SCCF:51:1,2009-02-08T01:00:00Z,26.5545,-82.1715,1.94,8.61,1111122 
SCCF RECON,ioos:station:SCCF:51:1,2009-02-08T02:00:00Z,26.5545,-82.1715,2.03,8.1,1111122 
SCCF RECON,ioos:station:SCCF:51:1,2009-02-08T03:00:00Z,26.5545,-82.1715,2.098,7.88,1111122 
SCCF RECON,ioos:station:SCCF:51:1,2009-02-08T04:00:00Z,26.5545,-82.1715,2.13,7.87,1111122 
SCCF RECON,ioos:station:SCCF:51:1,2009-02-08T05:00:00Z,26.5545,-82.1715,2.09,8.04,1111122 
SCCF RECON,ioos:station:SCCF:51:1,2009-02-08T06:00:00Z,26.5545,-82.1715,1.991,8.46,1111122 
SCCF RECON,ioos:station:SCCF:51:1,2009-02-08T07:00:00Z,26.5545,-82.1715,1.858,8.19,1111122 
SCCF RECON,ioos:station:SCCF:51:1,2009-02-08T08:00:00Z,26.5545,-82.1715,1.699,8.36,1111122 
SCCF RECON,ioos:station:SCCF:51:1,2009-02-08T09:00:00Z,26.5545,-82.1715,1.554,8.28,1111122 
SCCF RECON,ioos:station:SCCF:51:1,2009-02-08T10:00:00Z,26.5545,-82.1715,1.42,8.57,1111122 
SCCF RECON,ioos:station:SCCF:51:1,2009-02-08T11:00:00Z,26.5545,-82.1715,1.299,8.43,1111122 
SCCF RECON,ioos:station:SCCF:51:1,2009-02-08T12:00:00Z,26.5545,-82.1715,1.209,8.29,1111122 
SCCF RECON,ioos:station:SCCF:51:1,2009-02-08T13:00:00Z,26.5545,-82.1715,1.216,8.22,1111122 
SCCF RECON,ioos:station:SCCF:51:1,2009-02-08T14:00:00Z,26.5545,-82.1715,1.312,8.25,1111122 
SCCF RECON,ioos:station:SCCF:51:1,2009-02-08T15:00:00Z,26.5545,-82.1715,1.456,8.33,1111122 
SCCF RECON,ioos:station:SCCF:51:1,2009-02-08T16:00:00Z,26.5545,-82.1715,1.589,8.14,1111122 
SCCF RECON,ioos:station:SCCF:51:1,2009-02-08T17:00:00Z,26.5545,-82.1715,1.68,8.11,1111122 
SCCF RECON,ioos:station:SCCF:51:1,2009-02-08T18:00:00Z,26.5545,-82.1715,1.734,8.41,1111122 
SCCF RECON,ioos:station:SCCF:51:1,2009-02-08T19:00:00Z,26.5545,-82.1715,1.715,8.35,1111122 
SCCF RECON,ioos:station:SCCF:51:1,2009-02-08T20:00:00Z,26.5545,-82.1715,1.652,8.48,1111122 
SCCF RECON,ioos:station:SCCF:51:1,2009-02-08T21:00:00Z,26.5545,-82.1715,1.587,8.74,1111122 
SCCF RECON,ioos:station:SCCF:51:1,2009-02-08T22:00:00Z,26.5545,-82.1715,1.56,8.76,1111122 
SCCF RECON,ioos:station:SCCF:51:1,2009-02-08T23:00:00Z,26.5545,-82.1715,1.607,8.73,1111122 
SCCF RECON,ioos:station:SCCF:51:1,2009-02-09T00:00:00Z,26.5545,-82.1715,1.691,8.65,1111122 
SCCF RECON,ioos:station:SCCF:51:1,2009-02-09T01:00:00Z,26.5545,-82.1715,1.773,8.93,1111122 
SCCF RECON,ioos:station:SCCF:51:1,2009-02-09T02:00:00Z,26.5545,-82.1715,1.87,8.62,1111122 
SCCF RECON,ioos:station:SCCF:51:1,2009-02-09T03:00:00Z,26.5545,-82.1715,1.98,8.3,1111122 
SCCF RECON,ioos:station:SCCF:51:1,2009-02-09T04:00:00Z,26.5545,-82.1715,2.059,8.14,1111122 
SCCF RECON,ioos:station:SCCF:51:1,2009-02-09T05:00:00Z,26.5545,-82.1715,2.1,8.33,1111122 
SCCF RECON,ioos:station:SCCF:51:1,2009-02-09T06:00:00Z,26.5545,-82.1715,2.069,8.31,1111122 
SCCF RECON,ioos:station:SCCF:51:1,2009-02-09T07:00:00Z,26.5545,-82.1715,1.97,8.38,1111122 
SCCF RECON,ioos:station:SCCF:51:1,2009-02-09T08:00:00Z,26.5545,-82.1715,1.829,8.33,1111122 
SCCF RECON,ioos:station:SCCF:51:1,2009-02-09T09:00:00Z,26.5545,-82.1715,1.672,8.37,1111122 
SCCF RECON,ioos:station:SCCF:51:1,2009-02-09T10:00:00Z,26.5545,-82.1715,1.53,8.31,1111122 
SCCF RECON,ioos:station:SCCF:51:1,2009-02-09T11:00:00Z,26.5545,-82.1715,1.401,8.23,1111122 
SCCF RECON,ioos:station:SCCF:51:1,2009-02-09T12:00:00Z,26.5545,-82.1715,1.293,8.25,1111122 
SCCF RECON,ioos:station:SCCF:51:1,2009-02-09T13:00:00Z,26.5545,-82.1715,1.256,8.18,1111122 
SCCF RECON,ioos:station:SCCF:51:1,2009-02-09T14:00:00Z,26.5545,-82.1715,1.325,8.2,1111122 
SCCF RECON,ioos:station:SCCF:51:1,2009-02-09T15:00:00Z,26.5545,-82.1715,1.447,8.35,1111122 
SCCF RECON,ioos:station:SCCF:51:1,2009-02-09T16:00:00Z,26.5545,-82.1715,1.595,8.17,1111122 
SCCF RECON,ioos:station:SCCF:51:1,2009-02-09T18:00:00Z,26.5545,-82.1715,1.813,8.3,1111122 
SCCF RECON,ioos:station:SCCF:51:1,2009-02-09T19:00:00Z,26.5545,-82.1715,1.845,8.4,1111122 
SCCF RECON,ioos:station:SCCF:51:1,2009-02-09T20:00:00Z,26.5545,-82.1715,1.796,8.66,1111122 
SCCF RECON,ioos:station:SCCF:51:1,2009-02-09T21:00:00Z,26.5545,-82.1715,1.712,8.67,1111122 
SCCF RECON,ioos:station:SCCF:51:1,2009-02-09T22:00:00Z,26.5545,-82.1715,1.63,8.85,1111122 
SCCF RECON,ioos:station:SCCF:51:1,2009-02-09T23:00:00Z,26.5545,-82.1715,1.59,8.83,1111122 
SCCF RECON,ioos:station:SCCF:51:1,2009-02-10T00:00:00Z,26.5545,-82.1715,1.602,8.82,1111122 
SCCF RECON,ioos:station:SCCF:51:1,2009-02-10T01:00:00Z,26.5545,-82.1715,1.68,8.65,1111122 
SCCF RECON,ioos:station:SCCF:51:1,2009-02-10T02:00:00Z,26.5545,-82.1715,1.76,8.64,1111122 
SCCF RECON,ioos:station:SCCF:51:1,2009-02-10T03:00:00Z,26.5545,-82.1715,1.888,8.77,1111122 
SCCF RECON,ioos:station:SCCF:51:1,2009-02-10T04:00:00Z,26.5545,-82.1715,1.994,8.38,1111122 
SCCF RECON,ioos:station:SCCF:51:1,2009-02-10T05:00:00Z,26.5545,-82.1715,2.072,8.33,1111122 
SCCF RECON,ioos:station:SCCF:51:1,2009-02-10T06:00:00Z,26.5545,-82.1715,2.1,8.48,1111122 
SCCF RECON,ioos:station:SCCF:51:1,2009-02-10T07:00:00Z,26.5545,-82.1715,2.051,8.42,1111122 
SCCF RECON,ioos:station:SCCF:51:1,2009-02-10T08:00:00Z,26.5545,-82.1715,1.95,8.4,1111122 
SCCF RECON,ioos:station:SCCF:51:1,2009-02-10T09:00:00Z,26.5545,-82.1715,1.81,8.34,1111122 
SCCF RECON,ioos:station:SCCF:51:1,2009-02-10T10:00:00Z,26.5545,-82.1715,1.66,8.37,1111122 
SCCF RECON,ioos:station:SCCF:51:1,2009-02-10T11:00:00Z,26.5545,-82.1715,1.53,8.28,1111122 
SCCF RECON,ioos:station:SCCF:51:1,2009-02-10T12:00:00Z,26.5545,-82.1715,1.409,8.27,1111122 
SCCF RECON,ioos:station:SCCF:51:1,2009-02-10T13:00:00Z,26.5545,-82.1715,1.33,8.26,1111122 
SCCF RECON,ioos:station:SCCF:51:1,2009-02-10T14:00:00Z,26.5545,-82.1715,1.34,8.46,1111122 
SCCF RECON,ioos:station:SCCF:51:1,2009-02-10T15:00:00Z,26.5545,-82.1715,1.463,8.47,1111122 
SCCF RECON,ioos:station:SCCF:51:1,2009-02-10T16:00:00Z,26.5545,-82.1715,1.612,8.33,1111122 
SCCF RECON,ioos:station:SCCF:51:1,2009-02-10T17:00:00Z,26.5545,-82.1715,1.752,8.26,1111122 
SCCF RECON,ioos:station:SCCF:51:1,2009-02-10T18:00:00Z,26.5545,-82.1715,1.845,8.29,1111122 
SCCF RECON,ioos:station:SCCF:51:1,2009-02-10T19:00:00Z,26.5545,-82.1715,1.897,8.45,1111122 
SCCF RECON,ioos:station:SCCF:51:1,2009-02-10T20:00:00Z,26.5545,-82.1715,1.869,8.49,1111122 
SCCF RECON,ioos:station:SCCF:51:1,2009-02-10T21:00:00Z,26.5545,-82.1715,1.798,8.57,1111122 
SCCF RECON,ioos:station:SCCF:51:1,2009-02-10T22:00:00Z,26.5545,-82.1715,1.716,8.59,1111122 
SCCF RECON,ioos:station:SCCF:51:1,2009-02-10T23:00:00Z,26.5545,-82.1715,1.641,8.67,1111122 
SCCF RECON,ioos:station:SCCF:51:1,2009-02-11T00:00:00Z,26.5545,-82.1715,1.599,8.51,1111122 
SCCF RECON,ioos:station:SCCF:51:1,2009-02-11T01:00:00Z,26.5545,-82.1715,1.6,8.43,1111122 
SCCF RECON,ioos:station:SCCF:51:1,2009-02-11T02:00:00Z,26.5545,-82.1715,1.65,8.53,1111122 
SCCF RECON,ioos:station:SCCF:51:1,2009-02-11T03:00:00Z,26.5545,-82.1715,1.75,8.39,1111122 
SCCF RECON,ioos:station:SCCF:51:1,2009-02-11T04:00:00Z,26.5545,-82.1715,1.893,8.66,1111122 
SCCF RECON,ioos:station:SCCF:51:1,2009-02-11T05:00:00Z,26.5545,-82.1715,2.035,8.53,1111122 
SCCF RECON,ioos:station:SCCF:51:1,2009-02-11T06:00:00Z,26.5545,-82.1715,2.131,8.38,1111122 
SCCF RECON,ioos:station:SCCF:51:1,2009-02-11T07:00:00Z,26.5545,-82.1715,2.15,8.34,1111122 
SCCF RECON,ioos:station:SCCF:51:1,2009-02-11T08:00:00Z,26.5545,-82.1715,2.08,8.29,1111122 
SCCF RECON,ioos:station:SCCF:51:1,2009-02-11T09:00:00Z,26.5545,-82.1715,1.969,8.21,1111122 
SCCF RECON,ioos:station:SCCF:51:1,2009-02-11T10:00:00Z,26.5545,-82.1715,1.834,8.16,1111122 
SCCF RECON,ioos:station:SCCF:51:1,2009-02-11T11:00:00Z,26.5545,-82.1715,1.707,8.06,1111122 
SCCF RECON,ioos:station:SCCF:51:1,2009-02-11T12:00:00Z,26.5545,-82.1715,1.594,8.02,1111122 
SCCF RECON,ioos:station:SCCF:51:1,2009-02-11T13:00:00Z,26.5545,-82.1715,1.505,7.93,1111122 
SCCF RECON,ioos:station:SCCF:51:1,2009-02-11T14:00:00Z,26.5545,-82.1715,1.471,7.97,1111122 
SCCF RECON,ioos:station:SCCF:51:1,2009-02-11T15:00:00Z,26.5545,-82.1715,1.543,8.06,1111122 
SCCF RECON,ioos:station:SCCF:51:1,2009-02-11T16:00:00Z,26.5545,-82.1715,1.661,8.15,1111122 
SCCF RECON,ioos:station:SCCF:51:1,2009-02-11T17:00:00Z,26.5545,-82.1715,1.821,8.11,1111122 
SCCF RECON,ioos:station:SCCF:51:1,2009-02-11T18:00:00Z,26.5545,-82.1715,1.942,8.21,1111122 
SCCF RECON,ioos:station:SCCF:51:1,2009-02-11T19:00:00Z,26.5545,-82.1715,2.001,8.21,1111122 
SCCF RECON,ioos:station:SCCF:51:1,2009-02-11T20:00:00Z,26.5545,-82.1715,1.981,8.34,1111122 